Location: Baili�vre
(50.0696°N, 4.2409°E)
Time: 05:39:13
(UTC+00:00)

deb Kosmos-1763 - Pass Details

Date: 08 August 2020
Orbit: 463 x 478 km, 74.0° (Epoch: 19 September)

Event Time Altitude Azimuth Distance (km) Brightness Sun altitude
Exits shadow 21:16:12 12° 206° (SSW) 1,507 6.3 -16.1°
Maximum altitude 21:19:30 82° 294° (WNW) 485 4.0 -16.4°
Drops below altitude 10° 21:23:09 10° 22° (NNE) 1,656 7.2 -16.8°
Sets 21:25:17 0° 24° (NNE) 2,542 8.1 -17.0°
